Regional Weather Roundup
Issued by NWS Bismarck, ND

Home | Current Version | Previous Version | Text Only | Print | Product List | Glossary On
Versions: 1 2 3 4 5 6 7 8 9 10 11 12 13 14 15 16 17 18 19 20 21 22 23 24 25 26 27 28 29 30 31 32 33 34 35 36 37 38 39 40 41 42 43 44 45 46 47 48 49 50
000
ASUS43 KBIS 301902
RWRBIS

NWR BROADCAST TEXT
NATIONAL WEATHER SERVICE BISMARCK ND
200 PM CDT MON MAY 30 2016

NOTE: "FAIR" INDICATES FEW OR NO CLOUDS BELOW 12,000 FEET WITH NO
SIGNIFICANT WEATHER AND/OR OBSTRUCTIONS TO VISIBILITY.


CITY           SKY/WX    TMP DP  RH WIND       PRES   REMARKS
WILLISTON      LGT RAIN  58  52  80 N5        29.94S
MINOT          CLOUDY    72  53  51 W16       29.88S
MINOT AFB      NOT AVBL
BISMARCK       CLOUDY    76  57  51 S9        29.84F
DICKINSON      LGT RAIN  55  53  93 N9        29.89F
GARRISON         N/A     62  53  72 N21       29.85F
HETTINGER ARPT PTSUNNY   60  54  80 N20       29.86F
JAMESTOWN      SUNNY     82  51  34 SE13      29.83F
CARRINGTON     FAIR      75  54  46 N13G24    29.86S
HAZEN          MOCLDY    59  54  82 W18       29.92R
MANDAN         FAIR      73  57  56 SE10      29.85F
OAKES            N/A    N/A N/A N/A MISG        N/A
STANLEY        FAIR      57  57 100 W8        29.95F
$$

CITY           SKY/WX    TMP DP  RH WIND       PRES   REMARKS
GRAND FORKS    PTSUNNY   80  52  37 SE6       29.86F
GRAND FORKS AF NOT AVBL
DEVILS LAKE    CLOUDY    76  52  43 VRB3      29.86F
FARGO          MOSUNNY   86  50  28 S9        29.86F
GRAFTON        FAIR      75  55  50 SE8       29.89F
GWINNER        FAIR      84  48  28 SE13      29.87F
LANGDON        FAIR      81  41  24 SW5       29.89F
$$

CITY           SKY/WX    TMP DP  RH WIND       PRES   REMARKS
ABERDEEN       MOSUNNY   84  52  33 S18G31    29.86F
MOBRIDGE       RAIN      72  57  59 CALM      29.84R
BUFFALO          N/A     59  52  77 NW22      29.84S
RAPID CITY     CLOUDY    78  53  41 N22       29.82F
GLASGOW        CLOUDY    59  46  62 W21G28    29.96R
SIDNEY         RAIN      58  53  84 CALM      29.93S
WOLF POINT     LGT RAIN  58  53  84 NW6       29.94S
GLENDIVE       CLOUDY    57  54  88 E9        29.95F
MILES CITY     CLOUDY    65  49  56 VRB3      29.94F
BAKER          LGT RAIN  58  53  84 N9        29.94F
$$

CITY           SKY/WX    TMP DP  RH WIND       PRES   REMARKS
BILLINGS       CLOUDY    61  43  51 NW12G18   30.01R
GREAT FALLS    PTSUNNY   57  37  47 NW16      30.13S
$$




USA.gov is the U.S. government's official web portal to all federal, state and local government web resources and services.